Радовицкий

Россия / Московская область     55°07′41″N   39°47′37″E
темп.,
°C
ветер,
м/с
пор.,
м/с
влажн.,
%
обл.,
%
осадки,
мм/ч
давл.,
гПа
погр.,
м
14 апреля, ср
ср1400:00+12ююв414585 0.0 1024325
03:00+9ююв312675 0.0 1023274
06:00+8ююв29744 0.0 1022171
09:00+14ююв485039 0.0 1022397
12:00+19ююв473430 0.0 10201090
15:00+20ююв562766 0.0 10191913
18:00+17ююв25394 0.0 1019134
21:00+12юв245697 0.0 101954
15 апреля, чт
чт1500:00+10юв226190 0.0 101827
03:00+8юв226693 0.0 101822
06:00+8вюв2268100 0.0 101828
09:00+13вюв2350100 0.0 1018262
12:00+18в2435100 0.0 10171117
15:00+19в342997 0.0 10161911
18:00+16всв2642100 0.0 1016150
21:00+12св51359100 0.0 1018382
16 апреля, пт
пт1600:00+10всв3881100 0.0 1019522
03:00+8св51384100 0.4 1019483
06:00+7всв51387100 0.0 1020506
09:00+9всв51175100 0.2 1021545
12:00+14всв5857100 0.1 1022942
15:00+15всв685399 0.2 10221040
18:00+13всв5960100 0.0 10221028
21:00+10всв51268100 0.0 1024671
17 апреля, сб
сб1700:00+8всв51369100 0.0 1025564
03:00+6всв51264100 0.0 1026419
06:00+5всв5136453 0.0 1027478
09:00+8всв6104874 0.0 1028727
12:00+12всв68319 0.0 10281335
15:00+13всв68295 0.0 10281616
18:00+11всв59385 0.0 10281194
21:00+7всв413504 0.0 1029490
18 апреля, вс
вс1800:00+5св310684 0.0 1030238
03:00+3всв397710 0.0 1030198
06:00+3всв310805 0.0 1031226
09:00+9в485465 0.0 1031718
12:00+12в46415 0.0 10301649
15:00+14в45386 0.0 10292012
18:00+12в374456 0.0 1029741
21:00+7всв396759 0.0 1031216